Location: Avignon
(43.9454°N, 4.8102°E)
Time: 17:45:31
(UTC+00:00)

Daily predictions for brighter satellites

Satellite Brightness Start Highest point End
(mag) Time Altitude Azimuth Time Altitude Azimuth Time Altitude Azimuth
Okean O Rocket 1.6 17:01:35 10° SSE 17:05:56 84° ENE 17:10:19 10° NNW
Cosmos 1331 Rocket 4.0 17:02:08 10° SSW 17:07:17 88° ESE 17:12:29 10° NNE
USA 308 4.2 17:04:32 10° NW 17:08:13 27° NNE 17:11:53 10° ENE
Cosmos 1408 4.4 17:08:33 10° NE 17:10:06 12° ENE 17:11:40 10° E
Timation 2 Rocket 4.2 17:03:58 10° NNW 17:10:36 70° ENE 17:17:24 10° SE
Meteor 2-14 Rocket 4.5 17:05:41 10° N 17:11:52 84° E 17:17:59 10° S
NOAA 12 4.2 17:06:55 10° SSE 17:12:13 89° ENE 17:17:35 10° NNW
Cosmos 1726 Rocket 3.6 17:08:06 10° S 17:12:22 60° E 17:16:42 10° NNE
USA 215 4.5 17:08:25 10° NE 17:13:47 28° N 17:19:09 10° NW
Cosmos 2227 Rocket 2.7 17:09:11 10° NNW 17:14:28 38° ENE 17:19:43 10° SE
Helios 1A Rocket 4.0 17:11:42 10° ESE 17:15:00 24° ENE 17:18:16 10° NNE
Cosmos 2228 3.0 17:11:14 10° S 17:15:28 89° E 17:19:46 10° N
Cosmos 1892 3.9 17:13:04 10° NNE 17:16:10 22° ENE 17:19:15 10° SE
ATLAS 2AS CENTAUR R/B 4.3 17:11:03 10° NNW 17:16:36 21° NNE 17:21:54 10° ENE
Aureole 3 Rocket 3.6 17:13:20 10° SSE 17:17:03 40° E 17:22:04 10° NNE
Cosmos 1400 Rocket 3.3 17:13:26 10° SSE 17:17:18 41° E 17:21:10 10° NNE
Cosmos 1758 Rocket 4.2 17:13:20 10° NNW 17:17:42 63° W 17:21:58 10° S
Cosmos 292 Rocket 3.8 17:14:52 10° SSW 17:19:40 89° E 17:24:31 10° NNE
IRS-1C Rocket 4.4 17:16:26 10° SE 17:21:25 46° ENE 17:26:27 10° N
Cosmos 1553 Rocket 4.4 17:18:04 10° SSE 17:23:58 42° E 17:29:49 10° NNE
Cosmos 968 Rocket 4.0 17:19:19 10° N 17:24:08 36° ENE 17:28:53 10° SE
Cosmos 1300 2.7 17:21:51 10° S 17:25:39 89° E 17:29:29 10° N
Atlas Centaur 2 4.4 17:19:42 10° SW 17:26:19 27° SSE 17:33:07 10° ESE
FALCON 9 DEB 3.6 17:23:27 10° WSW 17:26:36 50° NNW 17:29:34 11° NE
Milstar 3 4.5 17:21:58 10° SW 17:27:26 22° S 17:32:27 10° SE
Lacrosse 5 3.8 17:24:34 10° NW 17:28:06 18° N 17:31:38 10° NE
Cosmos 1606 Rocket 3.9 17:24:04 10° SSW 17:28:24 71° W 17:32:50 10° N
CZ-4 R/B 2.3 17:25:35 10° ESE 17:28:46 25° ENE 17:31:57 10° NNE
Cosmos 1697 Rocket 3.5 17:24:08 10° SSE 17:28:50 28° ESE 17:33:34 10° NE
FALCON 9 DEB 3.8 17:26:37 10° WSW 17:29:43 45° NNW 17:32:31 12° NE
SMAP 3.9 17:25:17 10° S 17:29:50 55° W 17:34:25 10° NNW
Cosmos 2058 3.8 17:29:48 10° NNE 17:33:15 26° ENE 17:36:42 10° SE
Cosmos 1825 3.8 17:32:11 10° NNE 17:34:22 16° ENE 17:34:22 16° ENE
PSLV R/B 4.3 17:31:06 10° NNE 17:35:05 41° E 17:38:59 10° S
SAR-Lupe-4 3.5 17:31:48 10° NNE 17:35:23 68° ESE 17:38:55 10° S
CZ-2D R/B 3.6 17:33:11 10° SE 17:36:45 39° ENE 17:40:19 10° N
SKYMED 2 3.6 17:34:41 10° NNE 17:39:00 58° E 17:43:15 10° S
Cosmos 1302 Rocket 4.0 17:33:49 10° SSW 17:39:05 87° ESE 17:44:25 10° NNE
ERS-2 2.9 17:35:44 10° N 17:39:17 54° WNW 17:42:51 10° SSW
NOAA 11 4.3 17:34:33 10° SSE 17:40:00 85° WSW 17:45:29 10° NNW
SL-4 R/B 3.1 17:37:48 10° NW 17:40:49 25° N 17:42:47 17° NE
Okean-O 3.0 17:37:11 10° SE 17:41:19 40° ENE 17:45:29 10° N
ADEOS Rocket 4.5 17:35:20 10° N 17:41:23 44° WNW 17:48:01 10° SW
USA 281 3.9 17:36:01 10° S 17:42:27 58° WSW 17:48:56 10° NNW
Cosmos 1346 Rocket 3.4 17:39:23 10° N 17:43:01 33° ENE 17:46:39 10° SE
FALCON 9 DEB 4.0 17:40:03 10° W 17:43:07 39° NNW 17:45:25 16° NE
SL-08 R/B 4.4 17:40:18 10° N 17:46:25 63° E 17:52:27 10° SSE
Cosmos 1340 2.5 17:42:48 10° N 17:46:36 77° ENE 17:50:22 10° SSE
Cosmos 1486 Rocket 4.0 17:44:02 10° NNW 17:49:21 61° ENE 17:54:35 10° SSE
Cosmos 1315 Rocket 3.5 17:46:17 10° SSE 17:49:49 32° E 17:53:24 10° NNE
Cosmos 1745 Rocket 4.2 17:45:09 10° N 17:51:16 50° ENE 17:57:24 10° SSE
Cosmos 1980 Rocket 3.2 17:47:44 10° SSE 17:52:03 23° ESE 17:53:25 21° E
SAR-Lupe-1 4.2 17:49:39 10° N 17:53:15 76° WNW 17:56:50 10° SSW
FALCON 9 DEB 4.3 17:50:49 10° W 17:53:46 32° NNW 17:55:34 18° NNE
USA 305 3.5 17:49:47 10° NW 17:53:52 40° NNE 17:55:45 26° ENE
Cosmos 1689 Rocket 1.8 17:51:02 10° NNE 17:53:56 85° ESE 17:56:48 10° SSW
Cosmos 2297 Rocket 2.2 17:48:37 10° NNW 17:54:19 90° WSW 17:59:59 10° SSE
In-Cosmos 22 Rocket 4.1 17:51:02 10° N 17:56:26 84° E 18:01:56 10° S
CZ-4B R/B 3.2 17:53:47 10° N 17:56:39 30° WNW 17:59:27 10° SW
Cosmos 1503 Rocket 4.3 17:54:19 10° N 17:59:19 43° ENE 18:03:10 16° SE
Aureole 3 3.4 17:56:23 10° SSW 17:59:28 53° W 18:02:24 10° N
USA 306 3.4 17:56:16 10° NW 18:00:22 43° NNE 18:01:57 30° ENE
Cosmos 2058 Rocket 3.7 17:59:41 10° SSW 18:04:07 61° W 18:08:36 10° N
CZ-2C R/B 3.3 18:01:48 10° SSE 18:07:30 62° ENE 18:13:04 10° N
Cosmos 1354 Rocket 4.2 18:06:25 10° N 18:11:31 48° ENE 18:14:14 25° SE
Cosmos 2360 4.4 18:06:04 10° S 18:11:33 49° ESE 18:15:32 18° NE
Cosmos 1455 2.1 18:09:49 10° S 18:13:32 62° E 18:17:16 10° NNE
NOAA 15 4.5 18:08:36 10° SSE 18:13:54 73° ENE 18:19:13 10° N
CZ-4C R/B 4.2 18:09:40 10° NNW 18:14:45 21° NNE 18:16:59 19° NE
Cosmos 1992 Rocket 3.9 18:11:40 10° SSW 18:16:51 76° ESE 18:22:04 10° NNE
Meteor 2-10 Rocket 3.4 18:13:51 10° S 18:19:11 85° E 18:24:20 10° NNE
Cosmos 1709 Rocket 4.2 18:14:44 10° N 18:20:55 49° ENE 18:27:03 10° SSE
Cosmos 1076 Rocket 3.3 18:18:16 10° N 18:22:30 64° E 18:25:00 23° SSE
Cosmos 2278 4.0 18:17:58 10° S 18:23:20 44° ESE 18:24:51 36° ENE
Cosmos 2219 4.2 18:20:40 10° NW 18:26:11 48° WSW 18:31:40 10° S
COSMO-SKYMED 1 3.8 18:22:52 10° N 18:26:59 43° WNW 18:31:05 10° SW
Geosat 3.9 18:29:49 30° NE 18:32:19 69° ESE 18:37:19 10° SSW
H-2A R/B 2.0 18:28:40 10° SSE 18:34:03 74° ENE 18:39:31 10° N
Cosmos 2082 3.6 18:28:32 10° NNW 18:34:19 87° ENE 18:38:04 23° SSE
Cosmos 883 Rocket 4.3 18:28:18 10° S 18:34:22 65° E 18:40:26 10° NNE
SJ-11-01 4.1 18:34:08 27° SSE 18:36:40 78° ENE 18:41:21 10° N
ARGOS 3.1 18:36:01 42° SE 18:37:37 59° ENE 18:42:58 10° N
YAOGAN 1 3.0 18:35:07 10° S 18:39:24 63° W 18:43:42 10° NNW
S3M 4.1 18:34:03 10° SSW 18:40:08 73° W 18:46:19 10° N
CRYOSAT 2 4.3 18:36:42 10° N 18:41:36 84° W 18:46:28 10° S
Cosmos 2315 Rocket 3.9 18:35:43 10° S 18:41:47 61° E 18:47:53 10° NNE
GEOS 3 Rocket 3.6 18:41:31 54° E 18:42:27 64° NE 18:47:48 10° NNW
SeaSat 1 2.8 18:43:27 46° NE 18:43:27 46° NE 18:47:40 10° NNW
USA 307 2.9 18:39:31 10° NW 18:43:36 75° N 18:43:36 75° N
Cosmos 1408 3.6 18:41:52 10° NNW 18:45:22 45° W 18:48:53 10° SSW
Cosmos 1812 Rocket 3.6 18:42:13 10° SSW 18:46:36 75° W 18:51:00 10° N
NOSS 3-4 (A) 4.1 18:40:35 10° NNW 18:47:19 49° NE 18:48:36 45° ENE
Cosmos 2369 3.7 18:41:36 10° SSW 18:47:20 80° WNW 18:51:18 21° NNE
NOSS 3-4 (C) 4.1 18:40:42 10° NNW 18:47:24 49° NE 18:48:40 45° ENE
USA 308 3.0 18:44:27 10° NW 18:48:20 71° NW 18:48:20 71° NW
DEBRIS 4.5 18:29:01 10° WSW 18:49:46 81° NNW 18:51:52 45° NE
NOSS 3-3 (A) 4.2 18:49:33 10° SW 18:55:21 66° NW 18:59:03 26° NNE
NOSS 3-3 (C) 4.2 18:49:40 10° SW 18:55:27 67° NW 18:59:06 27° NNE
USA 215 3.9 18:54:35 35° NE 18:55:43 38° NNE 19:01:38 10° NW
CSL-04 Rocket 3.9 18:51:49 10° S 18:57:21 72° WSW 19:02:53 10° NNW
Cosmos 2227 Rocket 3.8 18:53:24 10° NW 18:58:26 34° WSW 19:03:27 10° SSW
MOS 1 Rocket 3.7 18:54:09 10° N 18:58:50 66° WNW 19:03:48 10° SSW
Cosmos 2263 Rocket 3.1 18:57:21 10° NNW 19:01:09 35° NNE 19:01:09 35° NNE
CZ-4 R/B 3.5 19:00:28 10° SSW 19:03:43 25° W 19:06:58 10° NW
ATLAS 2AS CENTAUR R/B 3.0 19:02:08 10° NNW 19:09:28 52° NE 19:09:28 52° NE
BREEZE-M R/B 4.1 19:04:58 10° WNW 19:09:43 75° NNE 19:10:34 66° ENE
Cosmos 1825 3.9 19:06:41 10° NNW 19:09:13 31° WNW 19:09:13 31° WNW
Cosmos 1697 Rocket 3.7 19:07:12 10° SW 19:12:33 45° WNW 19:16:32 18° N
Lacrosse 5 3.6 19:08:27 10° NW 19:11:26 23° N 19:11:26 23° N
Atlas Centaur 2 4.0 19:07:56 10° WSW 19:15:07 31° S 19:16:24 30° SSE
Cosmos 44 Rocket 3.9 19:13:09 10° SW 19:17:11 52° W 19:17:11 52° W
SL-4 R/B 4.3 19:17:14 10° NW 19:18:22 19° NW 19:18:22 19° NW
Cosmos 1980 Rocket 2.8 19:30:09 10° SW 19:35:16 53° WNW 19:35:16 53° WNW
CZ-4C R/B 3.7 19:57:40 10° NNW 20:02:10 41° N 20:02:10 41° N
